Weather History for North Myrtle Beach, SC

Change the Weather History Date:

Friday, September 13, 2013

  Actual Average Record
Temperature  
Mean Temperature 80 °F 76 °F  
Max Temperature 89 °F 84 °F 89 °F (2000)
Min Temperature 71 °F 68 °F 58 °F (1992)
Degree Days  
Heating Degree Days 0 0  
Month to date heating degree days 0 0  
Since 1 July heating degree days 0 0  
Cooling Degree Days 15 11  
Month to date cooling degree days 178 158  
Year to date cooling degree days 1629 1634  
Growing Degree Days 30 (Base 50)    
Moisture  
Dew Point 70 °F    
Average Humidity 75    
Maximum Humidity 100    
Minimum Humidity 50    
Precipitation  
Precipitation 0.00 in 0.23 in 1.20 in (2005)
Month to date precipitation 0.02 3.17  
Year to date precipitation 40.78 38.52  
Sea Level Pressure  
Sea Level Pressure 29.80 in    
Wind  
Wind Speed 6 mph (WSW)    
Max Wind Speed 13 mph    
Max Gust Speed 18 mph    
Visibility 10 miles    
Events      
T = Trace of Precipitation, MM = Missing Value Source: NWS Daily Summary

Daily Weather History Graph

Daily Weather History Graph

Search for Another Location

Airport:

Trip Planner

Search our weather history database for the weather conditions in past years. The results will help you decide how hot, cold, wet, or windy it might be!

Date:

Astronomy

Sep. 13, 2013 Rise Set
Actual Time 6:57 AM EDT 7:23 PM EDT
Civil Twilight 6:31 AM EDT 7:48 PM EDT
Nautical Twilight 6:02 AM EDT 8:18 PM EDT
Astronomical Twilight 5:32 AM EDT 8:48 PM EDT
Moon 3:00 PM EDT (9/13) 12:36 AM EDT (9/13)
Length of Visible Light 13h 16m
Length of Day
12h 26m
First Quarter, 61% of the Moon is Illuminated
Sep 13
First Quarter
Sep 19
Full
Sep 26
Last Quarter
Oct 4
New
Oct 11
First Quarter

Hourly Weather History & Observations

Time (EDT) Temp. Heat Index Dew Point Humidity Pressure Visibility Wind Dir Wind Speed Gust Speed Precip Events Conditions
12:53 AM 77.0 °F - 69.1 °F 76% 29.85 in 10.0 mi SW 8.1 mph - N/A   Scattered Clouds
1:53 AM 77.0 °F - 68.0 °F 74% 29.83 in 10.0 mi WSW 10.4 mph - N/A   Clear
2:53 AM 75.9 °F - 68.0 °F 76% 29.82 in 10.0 mi WSW 8.1 mph - N/A   Clear
3:53 AM 75.9 °F - 68.0 °F 76% 29.81 in 10.0 mi WSW 8.1 mph - N/A   Partly Cloudy
4:53 AM 75.9 °F - 69.1 °F 79% 29.80 in 10.0 mi WSW 8.1 mph - N/A   Clear
5:53 AM 73.9 °F - 70.0 °F 87% 29.80 in 10.0 mi WSW 5.8 mph - N/A   Clear
6:53 AM 73.0 °F - 70.0 °F 90% 29.81 in 10.0 mi WSW 5.8 mph - N/A   Partly Cloudy
7:03 AM 73.4 °F - 69.8 °F 88% 29.81 in 10.0 mi WSW 3.5 mph - N/A   Partly Cloudy
7:53 AM 73.9 °F - 70.0 °F 87% 29.81 in 10.0 mi WSW 5.8 mph - N/A   Clear
8:53 AM 75.9 °F - 70.0 °F 82% 29.81 in 10.0 mi West 6.9 mph - N/A   Clear
9:53 AM 78.1 °F - 71.1 °F 79% 29.82 in 10.0 mi WNW 8.1 mph - N/A   Clear
10:53 AM 81.0 °F 84.4 °F 70.0 °F 69% 29.81 in 10.0 mi North 6.9 mph - N/A   Clear
11:53 AM 84.9 °F 90.1 °F 71.1 °F 63% 29.81 in 10.0 mi NNW 8.1 mph - N/A   Clear
12:53 PM 87.1 °F 92.0 °F 70.0 °F 57% 29.79 in 10.0 mi North 6.9 mph - N/A   Clear
1:53 PM 87.1 °F 90.6 °F 68.0 °F 53% 29.78 in 10.0 mi Variable 4.6 mph - N/A   Scattered Clouds
2:53 PM 87.1 °F 89.9 °F 66.9 °F 51% 29.76 in 10.0 mi West 4.6 mph - N/A   Clear
3:53 PM 84.0 °F 89.6 °F 72.0 °F 67% 29.75 in 10.0 mi SSW 12.7 mph - N/A   Mostly Cloudy
4:53 PM 84.0 °F 89.6 °F 72.0 °F 67% 29.75 in 10.0 mi SW 6.9 mph - N/A   Mostly Cloudy
5:53 PM 82.9 °F 88.8 °F 73.0 °F 72% 29.76 in 10.0 mi SW 9.2 mph - N/A   Mostly Cloudy
6:53 PM 82.0 °F 87.9 °F 73.9 °F 76% 29.76 in 9.0 mi SW 6.9 mph - N/A   Scattered Clouds
7:53 PM 80.1 °F 84.5 °F 73.9 °F 81% 29.78 in 10.0 mi Calm Calm - N/A   Partly Cloudy
8:53 PM 75.9 °F - 73.9 °F 94% 29.80 in 7.0 mi Calm Calm - N/A   Clear
9:53 PM 73.9 °F - 73.0 °F 97% 29.82 in 6.0 mi Calm Calm - N/A   Partly Cloudy
10:53 PM 73.9 °F - 72.0 °F 93% 29.82 in 8.0 mi Calm Calm - N/A   Mostly Cloudy
11:53 PM 73.9 °F - 64.0 °F 71% 29.82 in 10.0 mi NNE 9.2 mph - N/A   Partly Cloudy